Regional Weather Roundup
Issued by NWS

Home | Current Version | Previous Version | Graphics & Text | Print | Product List | Glossary On
Versions: 1 2 3 4 5 6 7 8 9 10 11 12 13 14 15 16 17 18 19 20 21 22 23 24 25 26 27 28
000
ASUS45 KCYS 250710
RWRWY

WYOMING REGIONAL WEATHER ROUNDUP
NATIONAL WEATHER SERVICE CHEYENNE WY
100 AM MDT MON SEP 25 2017

NOTE:  "FAIR" INDICATES FEW OR NO CLOUDS BELOW 12,000 FEET
WITH NO SIGNIFICANT WEATHER AND/OR OBSTRUCTIONS TO VISIBILITY.

WYZ001-250800-
YELLOWSTONE NATIONAL PARK

CITY           SKY/WX    TMP DP  RH WIND       PRES   REMARKS
LK YELLOWSTONE NOT AVBL
W YELLOWSTONE  NOT AVBL

$$
WYZ002>013-054>058-071-098>099-250800-
NORTHERN WYOMING

CITY           SKY/WX    TMP DP  RH WIND       PRES   REMARKS
JACKSON        CLOUDY    35  34  96 N6        30.11R WCI  30
CODY           FAIR      41  35  79 W3        30.12F
GREYBULL       CLOUDY    45  44  97 E5        30.11R
WORLAND        CLOUDY    43  42  97 SE5       30.11S
SHERIDAN       CLOUDY    44  40  85 CALM      30.12S
BUFFALO        CLOUDY    40  36  86 SE5       30.13S
GILLETTE       LGT RAIN  41  39  93 NE5       30.12S
HULETT         CLOUDY    41  37  87 NE5       30.13F FOG
NEWCASTLE      DRIZZLE   41  41 100 NW5       30.13R

$$
WYZ014>020-022>026-101>103-250800-
CENTRAL WYOMING

CITY           SKY/WX    TMP DP  RH WIND       PRES   REMARKS
BIG PINEY      LGT SNOW  33  32  96 CALM      30.11S FOG
PINEDALE       LGT SNOW  32  32 100 CALM      30.12S
DUBOIS         LGT SNOW  32  32 100 SE5       30.10S WCI  27
LANDER         CLOUDY    38  37  97 CALM      30.11S
RIVERTON       CLOUDY    39  37  92 CALM      30.12R
CASPER         CLOUDY    34  34 100 E12       30.10F WCI  25
DOUGLAS        LGT RAIN  38  36  92 N7        30.12F WCI  33

$$
WYZ021-027>030-104>119-250800-
SOUTHERN WYOMING

CITY           SKY/WX    TMP DP  RH WIND       PRES   REMARKS
EVANSTON       CLOUDY    34  34 100 SW8       30.13R FOG     WCI  27
FORT BRIDGER   CLOUDY    36  36 100 W12       30.14S WCI  28
ROCK SPRINGS   CLOUDY    34  33  96 NE5       30.10R WCI  30
DIXON          CLOUDY    37  35  90 CALM      30.12S
RAWLINS        CLOUDY    32  31  96 SE5       30.10F WCI  27
SARATOGA       CLOUDY    34  34 100 SW3       30.10F FOG
LARAMIE        CLOUDY    32  32 100 CALM      30.10R FOG
CHEYENNE       CLOUDY    40  37  89 NE9       30.09R WCI  34
TORRINGTON     CLOUDY    44  44 100 NE7       30.10S
PINE BLUFFS    CLOUDY    43  43 100 MISG      30.09F

$$




USA.gov is the U.S. government's official web portal to all federal, state and local government web resources and services.